Flight Track Log - Related Links

Times and Time Zones

All times are in EDT time to prevent confusion due to time zone crossing. See the AWI3778 flight status page for this flight to view local times or setup timezone preferences in your user account.

Time Position Orientation Groundspeed Altitude Reporting Facility
EDT Latitude Longitude Course Direction KTS MPH feet Rate Location/Type
Sun 02:14:00 PM 44.1682 -73.2594 196° South  Level FlightAware Approximate
Sun 02:14:18 PM 44.3256 -73.1683 184° South 245 282 5,900  Level Boston Center
Sun 02:15:00 PM 44.0690 -73.2990 196° South  Level FlightAware Approximate
Sun 02:15:18 PM 44.2633 -73.1444 165° South 273 314 8,100  Level Boston Center
Sun 02:16:00 PM 43.9699 -73.3388 196° South  Level FlightAware Approximate
Sun 02:16:18 PM 44.1928 -73.1147 163° South 273 314 9,800  Level Boston Center
Sun 02:17:00 PM 43.8705 -73.3776 195° South  Level FlightAware Approximate
Sun 02:17:18 PM 44.1136 -73.0819 163° South 285 328 10,100  Level Boston Center
Sun 02:18:00 PM 43.7708 -73.4144 195° South  Level FlightAware Approximate
Sun 02:18:18 PM 44.0469 -73.1161 200° South 254 292 12,400  Level Boston Center
Sun 02:19:18 PM 43.9819 -73.1817 216° Southwest 274 315 14,500 1,850 Climbing Boston Center
Sun 02:20:18 PM 43.9189 -73.2472 217° Southwest 291 335 16,100 1,350 Climbing Boston Center
Sun 02:21:18 PM 43.8581 -73.3097 217° Southwest 304 350 17,200 1,150 Climbing Boston Center
Sun 02:22:18 PM 43.7908 -73.3778 216° Southwest 304 350 18,400 950 Climbing Boston Center
Sun 02:23:18 PM 43.7278 -73.4456 218° Southwest 309 356 19,100 800 Climbing Boston Center
Sun 02:24:18 PM 43.6478 -73.5217 215° Southwest 321 369 20,000 800 Climbing Boston Center
Sun 02:25:18 PM 43.5742 -73.5950 216° Southwest 326 375 20,700 700 Climbing Boston Center
Sun 02:26:18 PM 43.5006 -73.6681 216° Southwest 331 381 21,400 800 Climbing Boston Center
Sun 02:27:18 PM 43.4225 -73.7436 215° Southwest 338 389 22,300 1,050 Climbing Boston Center
Sun 02:28:18 PM 43.3467 -73.8219 217° Southwest 338 389 23,500 850 Climbing Boston Center
Sun 02:29:18 PM 43.2706 -73.8972 216° Southwest 338 389 24,000 250 Climbing Boston Center
Sun 02:30:18 PM 43.1967 -73.9722 217° Southwest 338 389 24,000  Level Boston Center
Sun 02:31:18 PM 43.1206 -74.0472 216° Southwest 338 389 24,000  Level Boston Center
Sun 02:32:18 PM 43.0467 -74.1219 216° Southwest 338 389 24,000  Level Boston Center
Sun 02:33:18 PM 42.9725 -74.1939 215° Southwest 338 389 24,000  Level Boston Center
Sun 02:34:18 PM 42.8922 -74.2681 214° Southwest 338 389 24,000 -300 Level Boston Center
Sun 02:35:18 PM 42.8158 -74.3450 216° Southwest 343 395 23,400 -800 Descending Boston Center
Sun 02:36:18 PM 42.7375 -74.4217 216° Southwest 343 395 22,400 -700 Descending Boston Center
Sun 02:37:18 PM 42.6525 -74.5067 216° Southwest 343 395 22,000 -200 Descending Boston Center
Sun 02:38:18 PM 42.5739 -74.5828 215° Southwest 349 402 22,000 -600 Level Boston Center
Sun 02:39:18 PM 42.4911 -74.6617 215° Southwest 354 407 20,800 -1,161 Descending Boston Center
Sun 02:40:53 PM 42.3828 -74.7628 215° Southwest 346 398 19,000 -711 Descending New York Center
Sun 02:41:50 PM 42.3075 -74.8339 215° Southwest 346 398 19,000  Level New York Center
Sun 02:42:52 PM 42.2322 -74.9047 215° Southwest 346 398 19,000  Level New York Center
Sun 02:43:50 PM 42.1592 -74.9756 216° Southwest 341 392 19,000  Level New York Center
Sun 02:44:51 PM 42.0819 -75.0406 212° Southwest 341 392 19,000  Level New York Center
Sun 02:45:52 PM 41.9961 -75.1103 211° Southwest 336 387 19,000  Level New York Center
Sun 02:46:49 PM 41.9189 -75.1722 211° Southwest 336 387 19,000  Level New York Center
Sun 02:47:50 PM 41.8414 -75.2367 212° Southwest 336 387 19,000 -492 Level New York Center
Sun 02:48:51 PM 41.7728 -75.2931 212° Southwest 329 379 18,000 -1,311 Descending New York Center
Sun 02:49:49 PM 41.6933 -75.3544 210° Southwest 335 386 16,400 -1,650 Descending New York Center
Sun 02:50:51 PM 41.6072 -75.4261 212° Southwest 335 386 14,700 -1,574 Descending New York Center
Sun 02:51:51 PM 41.5300 -75.4844 209° Southwest 324 373 13,200 -1,339 Descending New York Center
Sun 02:52:52 PM 41.4611 -75.5406 211° Southwest 319 367 12,000 -610 Descending New York Center
Sun 02:53:49 PM 41.3964 -75.5942 212° Southwest 313 360 12,000  Level New York Center
Sun 02:54:49 PM 41.3253 -75.6497 210° Southwest 313 360 12,000 -99 Level New York Center
Sun 02:55:50 PM 41.2364 -75.6875 198° South 308 354 11,800 -645 Descending New York Center
Sun 02:56:50 PM 41.1478 -75.6617 168° South 311 358 10,700 -908 Descending New York Center
Sun 02:57:49 PM 41.0594 -75.6333 166° South 322 371 10,000 -353 Descending New York Center
Sun 02:58:49 PM 40.9792 -75.6083 167° South 333 383 10,000  Level New York Center
Sun 02:59:50 PM 40.8889 -75.5772 165° South 338 389 10,000  Level New York Center
Sun 03:00:50 PM 40.7922 -75.5458 166° South 338 389 10,000  Level New York Center
Sun 03:01:51 PM 40.7142 -75.5183 165° South 331 381 10,000  Level New York Center
Sun 03:02:51 PM 40.6278 -75.4906 166° South 331 381 10,000  Level New York Center
Sun 03:03:49 PM 40.5414 -75.4628 166° South 331 381 10,000  Level New York Center
Sun 03:04:50 PM 40.4467 -75.4292 165° South 325 374 10,000 -541 Level New York Center
Sun 03:05:51 PM 40.3672 -75.3828 156° South 319 367 8,900 -1,240 Descending New York Center
Sun 03:06:51 PM 40.2981 -75.3428 156° South 319 367 7,500 -1,438 Descending New York Center
Sun 03:07:52 PM 40.2081 -75.2933 157° South 314 361 6,000 -756 Descending New York Center
Sun 03:08:50 PM 40.1325 -75.2533 158° South 309 356 6,000 60 Level New York Center
Sun 03:09:32 PM 40.0833 -75.2167 150° Southeast 296 341 6,100 59 Climbing Philadelphia TRACON
Sun 03:10:32 PM 40.0000 -75.1833 163° South 250 288 6,100  Level Philadelphia TRACON
Sun 03:11:32 PM 39.9833 -75.1167 108° East 246 283 6,100 -400 Level Philadelphia TRACON
Sun 03:12:32 PM 40.0000 -75.0333 75° East 236 272 5,300 -500 Descending Philadelphia TRACON
Sun 03:13:32 PM 40.0167 -74.9500 75° East 233 268 5,100 -294 Descending Philadelphia TRACON
Sun 03:14:14 PM 40.0167 -74.9000 90° East 228 262 4,800 -667 Descending Philadelphia TRACON
Sun 03:15:20 PM 39.9667 -74.9167 194° South 163 188 3,900 -810 Descending Philadelphia TRACON
Sun 03:16:20 PM 39.9333 -74.9667 229° Southwest 161 185 3,100 -400 Descending Philadelphia TRACON
Sun 03:17:20 PM 39.9167 -75.0167 247° West 162 186 3,100  Level Philadelphia TRACON

Login

Don't have an account? Register now (free) for customized features, flight alerts, and more!